Terug naar catalogus

STARLINK-31506

ActiefCommunicatieVLEO
NORAD 59259·PAYLOAD·🇺🇸 United States

Gelanceerd Mar 19, 2024 vanaf Vandenberg Space Force Base

Loading…

Volgende Passages (komende 24 uur)

TLE

VersSource: CelesTrak SupGP

Epoch: Sep 15, 2026, 02:56 UTC

1 59259C 24050F   26258.12270833  .00036711  00000+0  10844-2 0  2584
2 59259  53.1615  20.5121 0001108  71.8340 153.6429 15.34380516    14

Volg STARLINK-31506 in realtime met AllMySat

Download on the App Store